Weather History for KICR - October, 2011

Change the Weather History Date:

Thursday, October 27, 2011

  Actual Average Record
Temperature  
Mean Temperature 39 °F 46 °F  
Max Temperature 55 °F 57 °F 68 °F (2014)
Min Temperature 23 °F 35 °F 23 °F (2008)
Degree Days  
Heating Degree Days 26 19  
Month to date heating degree days 287 376  
Since 1 July heating degree days 421 518  
Cooling Degree Days 0 0  
Month to date cooling degree days 52 9  
Year to date cooling degree days 1055 915  
Moisture  
Dew Point 22 °F    
Average Humidity 53    
Maximum Humidity 81    
Minimum Humidity 24    
Precipitation  
Precipitation 0.00 in 0.04 in 0.05 in (2014)
Month to date precipitation 2.70 1.51  
Year to date precipitation 21.54 20.50  
Sea Level Pressure  
Sea Level Pressure 30.12 in    
Wind  
Wind Speed 7 mph (SW)    
Max Wind Speed 18 mph    
Max Gust Speed 25 mph    
Visibility 10 miles    
Events      
T = Trace of Precipitation, MM = Missing Value Source: NWS Daily Summary

Daily Weather History Graph

Daily Weather History Graph

Search for Another Location

Airport or City:

Trip Planner

Search our weather history database for the weather conditions in past years. The results will help you decide how hot, cold, wet, or windy it might be!

Date:

Astronomy

Oct. 27, 2011 Rise Set
Actual Time 8:07 AM CDT 6:37 PM CDT
Civil Twilight 7:38 AM CDT 7:07 PM CDT
Nautical Twilight 7:05 AM CDT 7:40 PM CDT
Astronomical Twilight 6:31 AM CDT 8:13 PM CDT
Moon 9:16 AM CDT (10/27) 7:04 PM CDT (10/27)
Length of Visible Light 11h 28m
Length of Day
10h 29m
New Moon, 1% of the Moon is Illuminated
Oct 27
New Moon
Nov 2
First Quarter
Nov 10
Full
Nov 18
Last Quarter
Nov 25
New

Hourly Weather History & Observations

Time (CDT) Temp. Windchill Dew Point Humidity Pressure Visibility Wind Dir Wind Speed Gust Speed Precip Events Conditions
12:53 AM 34.0 °F 29.8 °F 24.1 °F 67% 30.18 in 10.0 mi WSW 4.6 mph - N/A   Clear
1:53 AM 33.1 °F - 24.1 °F 70% 30.17 in 10.0 mi Calm Calm - N/A   Clear
2:53 AM 33.1 °F 26.1 °F 24.1 °F 70% 30.17 in 10.0 mi SW 8.1 mph - N/A   Clear
3:53 AM 33.1 °F 27.7 °F 24.1 °F 70% 30.15 in 10.0 mi SW 5.8 mph - N/A   Partly Cloudy
4:53 AM 33.1 °F 26.9 °F 23.0 °F 66% 30.15 in 10.0 mi SW 6.9 mph - N/A   Clear
5:53 AM 30.0 °F 23.2 °F 21.9 °F 72% 30.15 in 10.0 mi SW 6.9 mph - N/A   Clear
6:53 AM 30.0 °F 26.5 °F 21.0 °F 69% 30.14 in 10.0 mi SSW 3.5 mph - N/A   Clear
7:53 AM 24.1 °F 18.2 °F 19.0 °F 81% 30.14 in 10.0 mi South 4.6 mph - N/A   Clear
8:53 AM 30.9 °F 25.2 °F 21.9 °F 69% 30.14 in 10.0 mi SSW 5.8 mph - N/A   Clear
9:53 AM 35.1 °F 28.6 °F 25.0 °F 67% 30.15 in 10.0 mi SSW 8.1 mph - N/A   Clear
10:53 AM 42.1 °F 38.4 °F 26.1 °F 53% 30.14 in 10.0 mi SSW 5.8 mph - N/A   Clear
11:53 AM 46.9 °F - 27.0 °F 46% 30.13 in 10.0 mi SSW 4.6 mph - N/A   Clear
12:53 PM 48.9 °F - 27.0 °F 43% 30.10 in 10.0 mi SSW 8.1 mph - N/A   Clear
1:53 PM 54.0 °F - 21.0 °F 28% 30.07 in 10.0 mi SW 10.4 mph - N/A   Clear
2:53 PM 52.0 °F - 19.9 °F 28% 30.05 in 9.0 mi WSW 13.8 mph - N/A   Clear
3:53 PM 53.1 °F - 19.9 °F 27% 30.05 in 9.0 mi SW 10.4 mph - N/A   Clear
4:53 PM 54.0 °F - 17.1 °F 23% 30.04 in 6.0 mi WSW 9.2 mph - N/A   Haze
6:53 PM 46.0 °F 41.9 °F 19.9 °F 35% 30.07 in 10.0 mi WNW 8.1 mph - N/A   Overcast
7:53 PM 45.0 °F 41.2 °F 19.0 °F 36% 30.10 in 10.0 mi WSW 6.9 mph - N/A   Clear
8:53 PM 42.1 °F 37.7 °F 18.0 °F 38% 30.09 in 10.0 mi SW 6.9 mph - N/A   Partly Cloudy
9:53 PM 39.0 °F 34.0 °F 19.0 °F 45% 30.11 in 10.0 mi WSW 6.9 mph - N/A   Clear
11:53 PM 39.0 °F 32.3 °F 21.9 °F 50% 30.13 in 10.0 mi West 10.4 mph - N/A   Clear